MDT,Max TemperatureF,Mean TemperatureF,Min TemperatureF,Max Dew PointF,MeanDew PointF,Min DewpointF,Max Humidity, Mean Humidity, Min Humidity, Max Sea Level PressureIn, Mean Sea Level PressureIn, Min Sea Level PressureIn, Max VisibilityMiles, Mean VisibilityMiles, Min VisibilityMiles, Max Wind SpeedMPH, Mean Wind SpeedMPH, Max Gust SpeedMPH,PrecipitationIn, CloudCover, Events, WindDirDegrees
2012-10-1,66,50,33,47,39,33,90,64,33,30.21,30.14,30.05,10,10,10,28,10,35,0.01,2,Rain,347
2012-10-2,81,56,31,41,31,22,96,49,12,30.11,29.91,29.74,10,10,10,14,4,18,0.00,0,,334
2012-10-3,83,59,34,34,27,17,76,43,9,30.29,29.88,29.71,10,10,10,44,10,54,0.00,1,,339
2012-10-4,52,40,28,27,24,22,85,58,33,30.35,30.25,30.16,10,10,10,26,13,32,0.00,0,,59
2012-10-5,41,36,31,31,29,23,96,81,59,30.31,30.23,30.12,10,8,1,29,12,36,0.06,8,Rain-Snow,139
2012-10-6,43,36,28,34,29,24,100,88,61,30.36,30.27,30.21,10,9,2,24,10,29,0.02,8,Rain-Snow,153
2012-10-7,53,37,20,30,22,8,100,71,17,30.28,30.17,30.04,10,9,1,21,7,31,0.00,4,,214
2012-10-8,69,43,17,20,13,7,85,44,9,30.11,29.95,29.82,10,10,10,16,5,22,0.00,0,,89
2012-10-9,43,34,25,36,29,12,96,73,32,30.26,30.07,29.80,10,10,10,18,7,23,0.00,5,,2
2012-10-10,64,49,33,36,33,28,86,60,35,30.20,30.07,29.93,10,10,10,22,10,26,0.00,2,,175
2012-10-11,70,51,32,37,31,27,82,55,23,30.22,30.04,29.91,10,10,10,23,7,26,0.00,0,,16
2012-10-12,65,47,29,43,34,27,96,72,41,30.19,30.04,29.84,10,10,10,23,9,31,0.02,2,Rain-Thunderstorm,163
2012-10-13,59,44,28,46,39,26,93,80,39,30.02,29.87,29.78,10,9,4,30,12,36,0.16,4,Rain,317
2012-10-14,65,49,33,43,37,32,97,67,29,30.26,30.15,30.06,10,10,10,21,10,25,0.02,1,Rain,315
2012-10-15,78,54,30,40,30,19,96,60,12,30.13,29.95,29.81,10,10,10,9,4,13,0.00,0,,353
2012-10-16,73,55,36,41,30,24,76,46,18,29.87,29.66,29.49,10,10,10,39,7,49,0.00,0,,255
2012-10-17,56,40,23,36,16,1,89,39,11,30.01,29.77,29.56,10,10,10,39,20,49,T,1,,329
2012-10-18,59,39,19,16,13,8,78,44,14,30.15,30.08,30.02,10,10,10,26,10,33,0.00,0,,325
2012-10-19,74,47,20,23,17,13,74,41,12,30.12,29.95,29.80,10,10,10,20,5,24,0.00,0,,309
2012-10-20,79,53,27,22,16,10,75,32,8,29.86,29.72,29.60,10,10,10,18,5,26,0.00,0,,161
2012-10-21,74,53,32,34,23,14,79,37,14,29.81,29.71,29.60,10,10,10,17,7,22,0.00,0,,17
2012-10-22,68,47,26,36,32,24,92,66,31,29.91,29.80,29.70,10,10,10,25,5,32,0.00,0,,128
2012-10-23,80,55,29,32,22,14,96,31,10,29.82,29.64,29.53,10,10,9,21,10,26,0.00,0,,251
2012-10-24,58,43,27,41,35,27,100,83,46,29.99,29.83,29.61,10,7,0,33,16,38,0.21,7,Fog-Rain-Snow,2
2012-10-25,37,31,25,28,25,23,100,85,60,30.33,30.17,29.97,10,8,3,26,16,32,T,6,Snow,357
2012-10-26,34,29,24,28,26,23,100,95,70,30.51,30.34,30.25,10,6,1,18,9,23,0.14,7,Snow,148
2012-10-27,49,37,24,28,25,19,100,82,31,30.26,30.16,30.06,10,7,0,17,8,22,0.00,4,Fog,170
2012-10-28,60,40,20,28,23,18,92,65,23,30.22,30.11,29.99,10,10,10,14,4,21,0.00,0,,173
2012-10-29,68,47,26,38,29,23,92,65,20,30.19,30.10,30.02,10,10,10,12,4,15,0.00,0,,336
2012-10-30,68,49,29,33,29,23,89,55,18,30.14,30.08,30.00,10,10,10,20,7,24,0.00,0,,336
2012-10-31,71,48,27,33,27,22,89,55,16,30.17,30.09,30.03,10,10,10,17,6,22,0.00,0,,334